Probability
4 9 11 9 8 8 9 10 10 9 7 6 6 6 6 6 6 6 6 6 6 5 4 3 3 3 3 4 4 3 2 2 1 1 2 3 7 11 12 11 10 10 10
7 9 9 8 7 9 10 11 10 9 8 7 6 6 6 6 6 6 6 6 6 5 4 3 3 3 4 3 3 1 1 1 1 1 1 2 5 9 12 12 11 10 9
9 8 8 7 7 8 10 11 10 9 8 7 6 6 6 6 6 6 6 6 6 6 5 4 3 4 4 3 1 0 0 1 1 1 0 0 2 7 11 12 11 10 9
9 8 8 8 8 8 9 10 10 9 8 7 6 6 6 6 6 6 6 6 6 6 6 5 4 4 4 2 1 0 1 1 0 0 0 0 1 5 10 11 10 8 7
9 9 9 9 9 9 9 10 10 9 8 7 5 5 5 6 6 6 7 7 7 6 6 5 4 4 4 2 0 0 1 1 1 1 0 0 1 4 7 9 8 6 5
10 10 10 10 10 10 11 11 11 10 9 8 5 5 6 7 7 7 7 8 8 7 7 6 5 5 4 2 0 0 1 2 2 1 0 0 1 3 5 5 6 6 6
10 11 12 12 11 11 12 12 11 10 9 9 7 6 8 9 9 8 7 7 7 7 7 7 6 5 3 2 1 1 2 2 2 1 0 0 1 2 3 4 4 6 7
10 12 14 13 12 11 11 11 10 10 10 10 9 8 8 9 9 7 6 5 5 6 7 7 6 4 3 3 3 2 2 1 1 0 0 0 1 1 2 2 3 4 6
11 12 13 13 11 10 10 10 9 9 10 10 10 10 9 9 7 6 5 4 4 5 7 8 6 4 4 3 3 3 2 1 0 0 0 1 1 1 1 1 1 3 4
11 12 13 12 11 9 9 8 7 7 9 11 11 11 10 8 6 5 5 4 3 4 6 7 7 5 4 3 3 3 2 1 0 0 1 1 2 1 0 0 0 1 1
11 12 13 12 11 9 8 8 7 7 7 9 10 10 9 7 5 5 4 4 4 5 6 7 7 5 4 3 3 3 2 1 0 1 2 3 3 2 1 0 0 0 0
12 13 13 13 11 9 8 8 8 7 7 7 9 10 9 6 4 4 5 6 6 5 6 7 6 4 3 3 2 2 1 0 1 1 3 4 3 2 1 0 0 0 0
15 14 13 12 11 9 9 9 9 9 8 9 11 12 11 9 6 5 6 7 6 5 6 5 4 3 3 3 2 1 0 1 2 3 3 4 3 2 1 0 0 0 0
17 15 13 12 12 12 12 11 10 10 10 11 14 15 15 14 11 9 9 8 7 6 7 6 4 3 3 3 3 1 1 3 4 4 4 4 3 2 0 0 0 0 0
18 16 14 15 16 17 15 14 13 12 11 12 15 16 17 16 14 13 13 12 9 8 9 8 6 5 5 5 4 3 4 5 5 5 5 4 3 2 1 0 1 1 1
21 19 19 20 20 19 17 16 14 13 12 12 13 14 14 14 14 14 14 13 10 9 9 9 8 8 8 7 6 5 5 5 5 5 5 5 4 3 2 2 3 3 2
25 24 23 24 22 19 16 15 14 13 12 11 11 12 13 14 14 13 12 12 11 10 10 10 9 9 9 8 7 5 5 5 5 5 5 4 3 3 2 2 3 4 5
27 27 26 25 23 19 15 14 13 12 11 11 11 13 13 14 14 12 11 11 12 11 9 9 9 9 9 10 9 8 7 6 6 6 5 4 3 3 2 2 3 5 7
29 28 26 24 21 18 16 15 14 13 12 10 10 11 12 12 12 11 11 11 11 10 8 8 9 9 9 10 10 9 9 8 7 7 7 5 3 3 2 1 2 4 5
31 28 25 21 19 18 17 16 15 14 13 10 9 10 11 10 10 10 10 11 11 9 9 8 9 8 8 8 7 6 7 7 8 9 8 6 5 4 3 1 1 2 3
32 29 24 21 20 19 18 17 15 13 12 10 10 10 10 9 9 8 9 11 11 10 9 9 8 8 8 7 6 5 4 5 7 9 10 9 7 6 4 2 2 3 4
32 29 25 23 23 22 21 19 16 13 11 10 10 10 9 8 7 7 7 9 9 8 7 7 8 8 9 9 9 7 5 4 5 8 11 11 10 9 7 5 5 7 8
30 26 22 22 23 23 24 22 18 16 15 12 11 10 8 7 6 5 4 5 6 6 5 6 6 8 9 10 11 9 7 5 5 7 10 13 13 12 10 8 7 9 10
27 24 21 22 23 23 24 24 22 19 16 12 9 8 7 6 5 3 1 1 3 5 6 5 5 7 9 10 10 10 9 8 8 7 7 9 12 12 11 10 10 10 11
24 23 22 25 26 25 25 26 25 20 14 9 6 5 5 4 3 1 0 0 2 4 5 5 6 8 10 11 10 10 10 10 8 6 5 4 6 9 10 12 13 13 13
22 23 24 27 29 28 26 26 25 19 12 7 5 4 4 4 3 1 0 1 2 3 4 5 6 8 11 12 11 11 11 10 7 7 5 2 4 7 9 12 15 15 15
Wind_Speed
7 11 13 9 8 8 8 8 8 8 8 7 7 7 6 6 6 6 7 7 7 7 8 8 8 7 7 7 8 8 8 8 8 9 11 12 12 12 12 12 12 11 14
9 12 13 9 8 8 8 8 8 8 8 8 7 7 7 7 7 6 7 7 7 7 8 8 8 7 7 7 8 8 8 8 8 8 10 11 11 11 11 10 8 9 13
10 12 12 9 8 8 8 8 8 8 8 8 8 7 7 7 7 7 7 7 7 7 7 7 7 7 8 8 7 8 8 8 8 7 7 8 10 11 11 11 11 12 12
10 10 10 10 8 8 8 7 8 8 8 8 8 7 7 6 7 7 7 7 7 7 7 7 7 7 7 7 7 7 8 8 6 5 5 5 7 11 11 11 11 11 11
10 10 11 10 9 8 8 8 7 8 8 8 8 7 7 6 6 6 7 7 7 7 7 7 7 6 6 6 7 7 7 6 5 5 4 4 6 11 10 10 10 10 10
10 10 12 9 9 8 8 7 7 7 7 7 7 7 6 6 6 6 6 6 7 6 7 7 6 6 6 6 6 6 5 4 6 3 4 4 6 10 9 9 9 10 10
10 9 12 9 8 7 7 6 6 7 6 6 6 6 6 5 5 6 6 6 6 6 6 6 6 6 6 6 6 5 4 3 3 3 3 3 6 8 8 8 8 9 9
9 9 11 10 8 7 6 5 6 6 6 6 6 6 6 6 6 6 5 5 5 5 6 6 5 5 5 5 5 4 3 3 3 3 3 3 6 7 7 8 7 8 9
9 8 9 10 9 8 7 6 6 6 6 6 6 6 6 6 5 5 5 5 5 5 5 5 5 5 5 5 4 3 2 4 3 3 3 3 6 6 6 8 7 8 9
8 7 8 7 7 7 8 7 6 6 6 6 6 6 5 5 5 5 5 5 5 5 4 4 4 4 4 5 4 3 3 5 2 3 3 5 7 5 6 7 7 7 9
7 7 7 7 6 6 6 8 7 7 6 6 7 6 5 4 4 5 5 6 5 4 4 3 3 3 4 6 5 4 5 3 2 1 3 8 6 5 6 8 8 8 9
8 7 6 6 6 6 5 6 4 5 5 4 4 5 3 2 1 2 7 6 4 4 4 4 3 6 7 4 6 7 3 1 1 2 5 7 6 6 6 8 8 9 9
9 7 7 6 5 5 4 4 3 2 3 4 4 3 2 2 2 2 3 4 4 4 3 5 6 3 2 1 1 2 1 1 0 1 5 7 5 5 6 7 8 8 9
8 8 7 6 5 4 3 3 3 2 2 2 3 3 2 2 1 1 1 1 2 1 1 2 1 1 1 2 2 2 2 1 1 1 5 7 4 4 5 6 8 8 9
8 8 7 6 5 4 3 2 2 2 1 1 2 2 2 2 2 1 1 1 1 1 2 2 1 1 2 2 2 2 2 2 1 1 4 7 4 4 5 6 7 8 8
8 8 8 7 6 5 4 3 2 2 2 2 1 2 2 1 1 2 2 1 1 1 1 1 1 2 2 1 1 2 2 2 2 2 2 6 7 5 5 6 6 7 8
8 8 7 7 6 5 4 4 3 2 2 2 1 2 2 2 2 2 2 2 1 1 2 2 2 2 2 2 2 2 2 2 2 2 3 2 5 8 8 7 6 6 6
7 7 7 6 6 5 4 3 2 1 2 1 1 1 2 2 2 3 2 2 1 2 2 2 2 2 2 2 2 2 2 3 3 3 3 3 2 3 8 9 7 7 7
7 7 7 6 6 5 5 3 2 2 1 1 1 1 1 2 2 2 2 1 3 2 2 3 2 2 2 2 2 2 2 2 3 3 3 3 2 2 3 8 10 9 8
7 7 7 6 5 5 4 3 2 2 2 2 1 1 1 1 2 2 2 1 3 2 2 2 2 2 2 2 2 1 2 1 2 2 3 2 3 3 4 4 6 8 9
8 8 7 7 6 4 3 3 3 2 2 2 1 1 1 1 2 2 2 1 2 2 2 2 3 3 3 2 2 2 2 2 1 1 2 2 2 2 2 3 3 3 5
9 8 8 7 7 5 4 3 2 1 2 2 1 2 1 1 2 2 2 2 2 2 2 2 3 3 2 2 3 2 2 3 3 2 2 2 2 2 2 3 2 2 2
9 9 7 7 7 5 5 4 3 2 2 2 1 2 1 2 2 2 2 2 2 3 2 2 3 4 3 3 3 3 2 1 1 2 2 1 1 1 2 2 3 3 3
9 8 8 8 7 5 5 4 4 2 1 1 1 1 1 2 2 2 3 3 3 2 2 4 3 3 4 3 3 3 3 1 2 2 2 2 1 2 2 2 2 3 4
8 7 7 7 7 6 5 4 3 2 1 1 1 1 2 2 2 2 3 3 3 3 2 3 2 3 3 3 3 3 3 2 4 3 2 2 2 2 2 2 2 2 3
7 7 7 7 6 6 6 5 4 3 2 1 2 1 2 2 2 3 3 3 3 3 3 3 3 4 3 3 3 3 3 3 4 3 3 3 2 2 2 2 2 3 3
Wind_Direction
140 129 129 139 136 133 131 129 123 118 117 116 113 109 106 103 101 102 107 107 108 108 110 112 113 114 112 113 114 114 116 121 123 129 139 139 139 142 146 152 157 143 136
132 127 132 139 137 134 132 130 127 121 117 116 113 110 108 105 102 100 101 105 109 109 109 114 115 114 111 111 114 114 113 114 119 126 139 147 146 148 151 151 145 128 139
130 130 140 137 137 133 130 129 128 124 121 118 114 110 108 105 102 102 101 103 107 109 110 110 113 114 111 110 112 116 116 112 120 136 164 157 141 144 146 144 137 137 143
131 135 134 132 136 133 127 126 127 126 123 121 117 112 108 104 102 103 104 103 103 106 109 112 109 109 114 116 117 117 120 120 133 172 172 133 135 134 140 144 144 146 147
131 133 125 138 138 134 131 125 126 125 122 121 121 116 110 105 102 103 108 108 106 104 105 109 111 107 108 115 120 119 122 129 162 197 127 126 126 136 148 148 150 153 153
139 139 128 143 139 138 135 131 129 128 124 122 121 118 113 109 110 110 111 112 110 107 105 106 108 111 111 113 120 124 126 147 199 149 119 127 123 136 152 158 158 160 156
139 137 133 142 140 139 137 135 131 128 125 122 120 117 112 111 114 115 114 114 113 113 110 107 105 107 111 113 115 120 130 189 209 122 122 126 110 129 144 157 166 165 162
140 138 132 142 144 143 138 136 143 136 127 121 117 114 110 112 115 118 116 116 115 115 110 107 106 108 108 111 119 128 149 241 171 123 120 115 110 137 153 162 166 164 161
140 139 141 150 152 151 142 133 137 137 133 125 120 114 112 116 121 125 121 116 120 118 113 110 112 113 119 115 116 126 186 263 235 135 133 116 126 145 154 165 164 161 158
144 145 144 149 150 160 154 145 133 134 134 130 128 126 130 137 136 136 140 116 117 117 118 117 120 129 127 130 136 160 216 240 218 132 126 110 125 141 147 150 148 149 154
151 150 150 152 155 159 150 142 154 152 148 160 151 144 171 164 151 157 112 110 115 113 117 121 136 154 164 156 159 187 221 226 129 92 99 104 130 145 148 148 145 143 145
162 161 157 156 155 159 153 148 169 169 156 179 152 161 172 143 138 129 117 128 131 138 151 149 176 199 216 175 168 197 209 207 139 124 102 110 133 147 153 151 148 149 150
163 164 162 160 160 163 155 159 160 157 157 175 160 171 169 170 161 166 153 158 169 183 185 168 197 209 194 175 205 176 179 179 142 115 109 113 134 154 158 154 154 156 159
165 168 164 163 165 170 161 159 168 164 162 170 158 191 178 181 180 166 192 168 187 182 188 223 206 165 187 196 207 176 174 180 153 124 114 118 131 158 163 167 165 163 167
170 171 169 171 168 168 167 178 164 164 167 157 175 178 199 184 187 194 195 219 228 194 194 224 209 172 205 197 194 166 168 165 181 176 127 130 135 157 176 179 178 176 175
175 175 170 175 169 170 172 173 167 167 172 197 192 177 207 212 194 214 215 220 229 228 238 238 210 208 218 205 196 185 201 191 185 208 170 149 155 165 174 175 178 184 183
177 172 173 173 167 175 180 179 173 177 186 198 188 186 207 225 212 228 221 223 208 208 204 227 217 220 212 205 197 193 197 204 192 197 208 190 167 169 172 169 168 173 184
175 168 173 172 165 167 169 177 180 184 179 195 190 185 202 230 229 238 229 231 221 227 217 208 226 218 209 224 211 212 194 189 196 200 208 200 196 178 171 171 176 183 189
169 166 168 168 166 167 163 165 173 163 178 188 176 191 192 211 214 233 237 231 236 232 226 234 201 233 209 225 216 209 219 209 201 201 203 207 196 207 189 165 178 185 191
166 164 163 165 164 167 163 164 174 171 183 184 174 172 198 199 199 230 220 216 243 231 227 229 226 229 237 224 234 197 219 209 222 194 211 193 198 206 205 191 188 184 186
168 168 167 169 162 167 164 177 178 178 188 178 173 156 195 213 202 225 250 195 236 227 239 231 231 207 215 205 213 193 186 200 204 216 224 212 184 191 202 207 212 190 177
170 169 171 173 167 172 160 171 177 183 194 181 167 150 197 211 219 217 236 232 214 214 217 237 241 240 215 202 230 213 198 184 187 198 204 206 205 196 190 195 187 185 209
173 172 171 170 167 171 164 159 154 162 179 168 186 173 200 224 218 248 230 240 224 229 210 226 229 237 230 211 228 241 234 213 176 163 203 213 209 212 213 190 198 191 204
177 173 170 167 165 164 165 159 162 162 159 159 260 196 199 208 224 223 225 225 236 242 225 233 218 238 236 223 202 243 266 283 235 190 194 188 208 221 231 234 207 193 197
173 172 167 166 165 164 166 163 172 161 156 168 222 224 234 203 216 229 224 224 231 243 241 246 228 238 239 243 227 217 224 222 236 229 217 204 210 213 214 212 217 199 181
169 169 165 161 163 166 170 168 172 165 170 181 219 236 230 210 216 222 227 227 234 241 233 236 231 227 244 249 252 235 230 227 230 232 226 222 221 207 196 196 206 194 192